SCP
-0 -0 0 0 0 0 0 0 0 0 0 0 0 0 0 0 0 0 0 0 0 0 0 0 0 0 0 0 0 0 0 0 0 0 0 0 0 0 0 0 0 0 0 0 0 0 0 0 0
-0 -0 0 0 0 0 0 0 0 0 0 0 0 0 0 0 0 0 0 0 0 0 0 0 0 0 0 0 0 0 0 0 0 0 0 0 0 0 0 0 0 0 0 0 0 0 0 0 0
0 0 0 0 0 0 0 0 0 0 0 0 0 0 0 0 0 0 0 0 0 0 0 0 0 0 0 0 0 0 0 0 0 0 0 0 0 0 0 0 0 0 0 0 0 0 0 0 0
0 0 0 0 0 0 0 0 0 0 0 0 0 0 0 0 0 0 0 0 0 0 0 0 0 0 0 0 0 0 0 0 0 0 0 0 0 0 0 0 0 0 0 0 0 0 0 0 0
0 0 0 0 0 0 0 0 0 0 0 0 0 0 0 0 0 0 0 0 0 0 0 0 0 0 0 0 0 0 0 0 0 0 0 0 0 0 0 0 0 0 0 0 0 0 0 0 0
0 0 0 0 0 0 0 0 0 0 0 0 0 0 0 0 0 0 0 0 0 0 0 0 0 0 0 0 0 0 0 0 0 0 0 0 0 0 0 0 0 0 0 0 0 0 0 0 0
0 0 0 0 0 0 0 0 0 0 0 0 0 0 0 0 0 0 0 0 0 0 0 0 0 0 0 0 0 0 0 0 0 0 0 0 0 0 0 0 0 0 0 0 0 0 0 0 0
0 0 0 0 0 0 0 0 0 0 0 0 0 0 0 0 0 0 0 0 0 0 0 0 0 0 0 0 0 0 0 0 0 0 0 0 0 0 0 0 0 0 0 0 0 0 0 0 0
0 0 0 0 0 0 0 0 0 0 0 0 0 0 0 0 0 0 0 0 0 0 0 0 0 0 0 0 0 0 0 0 0 0 0 0 0 0 0 0 0 0 0 0 0 0 0 0 0
0 0 0 0 0 0 0 0 0 0 0 0 0 0 0 0 0 0 0 0 0 0 0 0 0 0 0 0 0 0 0 0 0 0 0 0 0 0 0 0 0 0 0 0 0 0 0 0 0
0 0 0 0 0 0 0 0 0 0 0 0 0 0 0 0 0 0 0 0 0 0 0 0 0 0 0 0 0 0 0 0 0 0 0 0 0 0 0 0 0 0 0 0 0 0 0 0 0
0 0 0 0 0 0 0 0 0 0 0 0 0 0 0 0 0 0 0 0 0 0 0 0 0 0 0 0 0 0 0 0 0 0 0 0 0 0 0 0 0 0 0 0 0 0 0 0 0
0 0 0 0 0 0 0 0 0 0 0 0 0 0 0 0 0 0 0 0 0 0 0 0 0 0 0 0 0 0 0 0 0 0 0 0 0 0 0 0 0 0 0 0 0 0 0 0 0
0 0 0 0 0 0 0 0 0 0 0 0 0 0 0 0 0 0 0 0 0 0 0 0 0 0 0 0 0 0 0 0 0 0 0 0 0 0 0 0 0 0 0 0 0 0 0 0 0
0 0 0 0 0 0 0 0 0 0 0 0 0 0 0 0 0 0 0 0 0 0 0 0 0 0 0 0 0 0 0 0 0 0 0 0 0 0 0 0 0 0 0 0 0 0 0 0 0
0 0 0 0 0 0 0 0 0 0 0 0 0 0 0 0 0 0 0 0 0 0 0 0 0 0 0 0 0 0 0 0 0 0 0 0 0 0 0 0 0 0 0 0 0 0 0 0 0
0 0 0 0 0 0 0 0 0 0 0 0 0 0 0 0 0 0 0 0 0 0 0 0 0 0 0 0 0 0 0 0 0 0 0 0 0 0 0 0 0 0 0 0 0 0 0 0 0
0 0 0 0 0 0 0 0 0 0 0 0 0 0 0 0 0 0 0 0 0 0 0 0 0 0 0 0 0 0 0 0 0 0 0 0 0 0 0 0 0 0 0 0 0 0 0 0 0
0 0 0 0 0 0 0 0 0 0 0 0 0 0 0 0 0 0 0 0 0 0 0 0 0 0 0 0 0 0 0 0 0 0 0 0 0 0 0 0 0 0 0 0 0 0 0 0 0
0 0 0 0 0 0 0 0 0 0 0 0 0 0 0 0 0 0 0 0 0 0 0 0 0 0 0 0 0 0 0 0 0 0 0 0 0 0 0 0 0 0 0 0 0 0 0 0 0
0 0 0 0 0 0 0 0 0 0 0 0 0 0 0 0 0 0 0 0 0 0 0 0 0 0 0 0 0 0 0 0 0 0 0 0 0 0 0 0 0 0 0 0 0 0 0 0 0
0 0 0 0 0 0 0 0 0 0 0 0 0 0 0 0 0 0 0 0 0 0 0 0 0 0 0 0 0 0 0 0 0 0 0 0 0 0 0 0 0 0 0 0 0 0 0 0 0
0 0 0 0 0 0 0 0 0 0 0 0 0 0 0 0 0 0 0 0 0 0 0 0 0 0 0 0 0 0 0 0 0 0 0 0 0 0 0 0 0 0 0 0 0 0 0 0 0
0 0 0 0 0 0 0 0 0 0 0 0 0 0 0 0 0 0 0 0 0 0 0 0 0 0 0 0 0 0 0 0 0 0 0 0 0 0 0 0 0 0 0 0 0 0 0 0 0
0 0 0 0 0 0 0 0 0 0 0 0 0 0 0 0 0 0 0 0 0 0 0 0 0 0 0 0 0 0 0 0 0 0 0 0 0 0 0 0 0 0 0 0 0 0 0 0 0
0 0 0 0 0 0 0 0 0 0 0 0 0 0 0 0 0 0 0 0 0 0 0 0 0 0 0 0 0 0 0 0 0 0 0 0 0 0 0 0 0 0 0 0 0 0 0 0 0
0 0 0 0 0 0 0 0 0 0 0 0 0 0 0 0 0 0 0 0 0 0 0 0 0 0 0 0 0 0 0 0 0 0 0 0 0 0 0 0 0 0 0 0 0 0 0 0 0
0 0 0 0 0 0 0 0 0 0 0 0 0 0 0 0 0 0 0 0 0 0 0 0 0 0 0 0 0 0 0 0 0 0 0 0 0 0 0 0 0 0 0 0 0 0 0 0 0
0 0 0 0 0 0 0 0 0 0 0 0 0 0 0 0 0 0 0 0 0 0 0 0 0 0 0 0 0 0 0 0 0 0 0 0 0 0 0 0 0 0 0 0 0 0 0 0 0
0 0 0 0 0 0 0 0 0 0 0 0 0 0 0 0 0 0 0 0 0 0 0 0 0 0 0 0 0 0 0 0 0 0 0 0 0 0 0 0 0 0 0 0 0 0 0 0 0
Wind_Speed
3 2 2 4 7 5 1 3 2 2 3 2 2 6 8 6 5 2 0 9 7 10 10 13 17 16 15 14 13 12 11 11 11 11 11 11 11 11 10 10 11 11 12 13 13 13 13 13 13
1 1 4 6 6 2 4 3 4 5 4 3 3 4 3 2 1 2 3 7 8 11 9 9 18 17 15 14 13 12 12 11 11 11 11 10 10 10 10 10 10 11 11 12 12 12 11 11 12
1 2 5 5 4 5 4 4 6 3 2 3 3 2 3 3 2 4 4 10 8 10 8 11 19 17 16 15 14 13 12 11 11 11 10 10 10 10 10 10 10 10 10 11 11 11 11 10 11
2 4 5 5 3 5 4 4 3 1 1 2 4 2 1 0 1 3 7 10 11 10 8 11 19 17 16 15 14 13 12 11 11 11 10 10 9 9 9 9 9 9 9 10 10 10 10 10 10
4 5 5 2 3 4 4 3 3 2 2 2 5 5 2 1 2 5 10 11 12 9 7 9 18 17 17 16 14 13 13 12 11 11 10 10 9 9 8 8 8 8 8 9 9 9 9 9 9
5 5 4 1 3 4 4 2 3 3 2 2 6 5 3 1 3 5 9 9 10 10 8 8 17 17 16 16 14 13 12 12 11 11 10 9 9 8 8 7 7 7 7 7 7 8 8 8 8
5 5 4 3 2 3 2 1 3 3 2 4 7 5 3 1 4 7 7 8 8 8 8 6 8 11 15 15 15 13 13 12 11 10 10 9 8 8 7 6 6 5 5 6 6 6 6 7 7
4 5 3 2 2 3 3 1 2 3 3 1 5 6 5 3 7 8 7 7 7 7 7 6 6 7 7 9 13 13 12 11 11 10 9 9 8 7 6 5 4 4 4 4 4 4 5 5 6
4 5 2 4 4 3 2 0 1 1 2 1 2 3 0 7 10 10 7 6 8 8 6 6 6 7 6 6 9 10 11 11 10 8 9 8 4 3 4 5 3 2 1 1 1 2 3 5 5
4 4 6 4 4 3 1 1 1 1 0 1 2 1 4 7 10 11 11 13 14 14 11 7 7 7 7 6 5 4 4 5 5 4 5 4 4 3 3 4 4 2 1 1 2 3 4 4 2
4 5 4 3 3 2 2 2 2 3 5 7 7 6 6 6 8 10 11 12 14 13 12 10 8 8 7 5 4 3 3 3 4 5 6 4 4 2 2 1 0 1 1 1 2 3 1 1 1
3 3 3 3 2 2 3 3 3 6 11 8 8 5 7 10 11 13 13 11 10 11 13 11 9 8 8 6 5 4 3 3 3 4 6 4 3 3 2 2 2 1 1 1 1 1 2 2 3
3 3 3 3 4 3 3 6 5 8 10 4 3 5 9 11 10 9 8 7 8 12 13 12 11 10 8 6 5 5 5 5 5 4 5 6 4 4 3 2 2 3 2 2 2 2 3 3 3
3 2 3 4 4 3 5 6 4 12 6 4 6 8 9 10 10 7 7 8 10 12 13 12 12 11 9 7 6 5 5 5 4 4 5 6 5 4 4 3 3 3 3 3 3 3 3 3 3
1 2 6 4 3 3 2 7 9 10 3 6 7 8 8 8 8 9 9 9 10 11 12 13 13 11 11 9 7 5 5 5 4 4 5 6 5 5 4 3 3 3 3 3 2 3 2 2 3
2 2 4 6 2 1 3 9 11 3 4 7 7 7 7 7 7 8 7 7 8 8 11 13 11 12 11 9 7 5 5 5 4 4 4 6 6 5 4 3 3 3 2 2 2 2 2 2 2
2 2 4 7 3 1 3 9 10 2 4 7 7 7 7 7 6 6 6 6 7 9 11 13 12 13 11 9 7 5 5 5 4 4 4 4 5 5 4 3 2 2 2 1 1 1 1 2 2
5 4 4 6 4 2 5 11 14 7 6 9 9 8 8 9 9 5 4 4 5 7 9 11 11 11 10 7 5 4 4 3 3 3 3 4 4 4 4 2 2 2 2 1 1 1 1 1 2
5 5 6 8 5 3 9 14 16 11 8 10 10 10 10 11 6 4 3 3 4 6 8 10 11 10 9 7 6 5 4 3 2 2 3 4 3 4 3 2 2 2 2 1 1 1 0 1 1
4 5 7 8 4 4 8 13 14 11 10 12 12 13 12 9 6 6 5 4 5 6 8 9 10 11 10 7 5 4 4 3 2 2 3 3 3 3 3 3 2 2 2 2 1 1 1 1 1
6 7 8 8 6 4 5 10 9 8 6 7 9 9 9 12 12 9 7 6 5 7 8 9 10 10 9 8 6 5 4 3 2 2 2 2 3 3 3 3 3 3 2 2 1 2 2 0 1
8 8 8 6 4 5 2 8 9 8 8 9 9 8 10 10 9 9 8 7 7 6 6 8 8 9 9 9 9 8 5 4 4 3 3 3 3 4 4 4 4 3 2 2 1 2 2 2 1
8 4 4 3 4 4 2 5 11 6 9 12 9 9 9 9 10 10 9 8 6 6 6 7 8 8 8 8 9 8 5 4 3 3 4 3 3 3 4 4 4 3 2 2 2 1 2 2 2
6 6 4 4 2 5 6 7 10 7 10 8 6 6 8 8 9 8 6 6 6 5 6 7 9 7 7 8 8 8 9 8 7 5 4 3 2 2 3 3 3 3 2 2 1 1 2 2 2
6 6 1 3 1 8 4 6 13 13 8 8 9 7 7 8 9 10 10 9 9 8 8 8 9 8 7 8 7 8 9 9 8 7 5 4 2 2 2 2 2 2 1 1 1 1 1 2 3
8 11 9 7 6 5 2 9 13 11 8 8 8 6 6 8 9 11 11 10 10 10 9 9 9 8 8 8 7 7 7 6 5 5 5 5 3 3 3 3 2 2 1 1 1 1 2 2 3
8 7 7 5 2 4 7 8 13 8 6 5 3 3 6 9 10 10 9 9 10 10 10 10 10 9 8 8 8 7 7 6 6 5 4 3 3 3 3 3 2 2 1 1 1 1 2 2 3
9 10 6 6 5 6 7 6 7 9 8 5 4 5 6 7 8 8 9 9 9 8 8 8 9 9 8 8 7 6 6 6 6 6 5 5 4 3 3 3 2 2 1 1 1 2 2 3 3
7 6 6 6 6 6 5 8 9 9 7 7 7 6 6 8 10 9 9 8 7 7 8 8 8 8 8 8 7 7 6 6 6 5 5 5 4 4 3 3 2 2 2 2 2 3 3 4 4
8 10 10 8 7 6 4 10 7 6 7 6 7 5 5 7 7 8 8 8 8 9 9 9 9 9 9 8 8 7 7 6 6 5 5 5 4 4 3 3 2 2 2 2 3 4 4 4 5
Wind_Direction
354 15 68 59 57 55 213 239 220 217 232 221 156 150 152 162 167 196 295 145 140 149 167 172 164 163 159 151 145 140 137 130 123 117 111 106 99 91 85 79 75 72 69 67 67 66 64 61 61
10 80 57 63 88 107 258 237 216 215 205 123 102 118 137 186 177 142 149 169 150 153 162 167 165 164 161 153 148 146 141 134 127 121 115 109 101 94 89 85 80 75 73 70 68 66 65 62 60
165 56 84 79 119 180 221 225 216 240 183 151 132 144 168 172 168 182 182 160 146 153 160 169 166 166 164 157 154 152 147 141 134 128 122 114 105 99 92 87 83 80 76 73 70 68 66 63 60
91 52 58 82 186 217 224 237 199 244 166 171 148 147 242 112 176 174 142 149 147 154 159 171 167 168 167 161 158 156 153 148 143 136 128 120 111 103 96 91 87 84 80 76 72 69 66 62 59
62 79 71 66 248 252 247 252 180 195 198 174 153 163 214 45 75 124 141 150 151 153 157 172 169 171 170 166 163 161 157 154 150 142 135 126 118 110 102 97 93 87 81 75 71 67 64 59 56
61 71 96 200 267 283 275 236 159 193 202 162 152 164 234 89 121 142 146 148 151 152 156 171 174 174 172 170 168 167 163 158 155 150 143 134 126 120 113 104 96 88 80 73 67 62 59 55 51
106 104 149 189 272 297 298 218 165 178 196 210 167 157 264 239 137 134 133 133 140 149 155 174 174 175 175 173 171 172 169 165 162 158 149 141 135 132 124 114 104 94 83 71 62 56 50 47 44
123 107 130 189 217 270 300 302 162 168 201 164 152 162 226 197 126 114 112 122 138 153 162 175 172 169 170 171 173 173 173 171 168 163 153 148 147 142 133 123 119 109 95 78 61 48 41 37 31
91 83 171 207 200 250 298 19 336 160 134 157 218 207 262 122 125 121 127 144 163 173 176 177 173 168 163 164 175 172 174 174 171 164 159 147 123 116 122 141 150 145 120 75 44 24 23 31 19
94 143 216 217 203 223 268 230 242 126 198 249 259 205 111 136 149 155 166 175 182 186 186 182 176 170 166 169 167 161 162 165 156 142 140 128 130 137 140 174 189 204 236 329 342 360 20 36 12
149 186 223 239 230 224 240 243 222 183 233 225 221 212 159 169 175 179 184 185 190 188 188 185 179 172 170 165 158 155 150 146 145 144 139 135 131 132 132 147 210 342 9 28 3 9 6 340 302
173 224 215 239 218 204 222 234 231 209 225 227 219 191 173 183 193 195 194 193 185 185 192 188 181 177 175 167 164 161 157 154 155 158 153 147 147 158 171 183 192 192 185 205 233 257 274 282 280
207 250 238 242 255 242 241 236 238 244 243 246 214 180 191 197 206 209 202 188 181 191 193 191 183 181 176 170 168 166 166 167 167 165 167 164 167 179 185 192 196 204 200 208 222 239 258 272 278
225 244 286 280 260 239 228 252 233 253 242 220 208 208 209 208 209 206 199 193 191 195 194 191 189 184 176 175 173 170 170 168 166 170 177 176 176 180 185 195 203 213 212 214 219 231 243 256 261
134 328 315 286 256 253 216 280 241 249 203 221 224 223 221 221 214 212 209 202 198 195 191 191 190 183 180 179 176 170 170 167 172 178 179 181 182 184 186 193 208 218 213 214 223 239 239 257 262
82 30 298 290 280 239 169 266 272 264 197 234 238 234 231 230 222 225 221 212 201 189 187 190 188 184 183 179 173 168 168 170 176 174 175 185 189 186 183 193 213 211 196 200 219 234 247 261 269
29 259 258 292 276 190 203 258 278 286 215 246 245 237 235 240 239 233 224 211 197 189 182 184 183 182 181 174 167 164 164 168 170 168 175 184 186 182 181 195 205 186 182 194 214 214 223 268 286
221 223 245 258 276 217 249 261 274 272 236 248 249 241 235 234 234 226 218 204 184 177 175 177 176 174 168 159 148 142 144 154 155 162 171 169 170 171 170 177 185 166 158 175 185 220 232 258 289
183 202 246 256 258 254 258 266 274 271 249 246 243 233 228 231 231 207 194 171 153 157 164 171 170 167 162 161 159 155 158 152 147 148 150 154 154 155 155 154 151 147 158 174 164 155 300 329 349
197 231 261 281 271 231 269 273 270 259 242 234 231 227 222 217 205 199 188 173 165 164 165 166 168 167 168 166 154 140 137 134 133 128 121 125 133 139 144 149 148 146 136 116 112 120 103 15 30
210 212 236 258 309 306 300 293 281 278 254 252 237 226 214 205 201 193 185 182 169 169 169 168 166 163 158 146 128 110 95 86 95 108 110 98 119 125 127 133 130 127 128 134 137 140 143 173 344
231 219 221 248 279 286 318 294 286 277 286 265 248 228 216 205 193 186 181 179 178 175 162 157 155 154 151 149 152 150 150 154 165 151 135 109 101 111 114 119 121 122 122 128 143 144 151 154 225
209 200 196 222 219 275 273 260 279 291 276 268 252 231 218 201 189 186 182 175 165 157 153 148 145 146 150 153 155 150 142 136 128 122 122 110 93 100 113 120 121 122 123 133 140 139 159 171 189
147 91 72 53 86 266 227 217 275 251 240 266 271 238 216 194 184 175 160 147 145 146 145 145 147 146 149 148 150 152 148 144 140 140 138 129 114 103 108 116 118 124 129 142 159 169 184 197 208
134 120 23 308 272 250 223 220 252 251 248 251 268 259 213 187 175 169 166 167 163 162 159 155 152 149 151 149 151 154 153 153 156 156 155 150 146 148 148 128 130 133 147 161 163 175 213 214 219
178 163 176 204 228 271 231 236 255 262 268 264 263 251 194 183 181 181 180 175 171 169 166 162 159 154 155 153 152 150 150 150 152 154 154 160 162 164 158 146 144 148 154 157 161 188 228 221 232
158 197 177 150 205 267 265 273 295 285 278 277 275 227 199 191 186 184 179 176 173 173 174 170 162 155 158 155 147 149 151 150 149 147 144 149 154 154 152 149 146 149 157 173 179 214 247 245 246
158 151 130 156 194 242 267 261 252 278 284 293 273 243 218 193 186 183 181 181 179 175 167 164 163 161 158 155 155 155 155 151 148 145 151 155 156 152 150 152 156 166 187 204 210 240 249 251 257
143 157 159 164 177 182 245 260 232 241 269 282 275 249 213 197 192 188 185 179 170 163 164 167 165 157 158 160 156 150 152 148 146 151 159 158 157 159 163 169 175 194 218 224 226 246 254 256 264
175 177 158 172 211 196 205 263 264 252 268 270 274 258 216 201 192 185 177 169 171 174 174 175 172 169 168 161 155 154 151 149 152 159 162 159 161 167 172 176 190 215 227 232 237 254 257 255 261